Meteo Giornale » Osservazioni meteo Germania » Friedrichshafen

ore: 12:50 - Osservazioni Meteo Friedrichshafen
Lat. 47° 40' N Lon. 9° 31' E Alt. 416 metri s.l.m.

sereno Europe/Berlin

16 °C

Sereno

Temp. 24 Ore

6 °C

18 °C

Nord/Nord-Est

22.2 Km/h

Dew point 5 °C

Umidità 47 %

Visibilità  10 Km

Il sole sorge alle ore 07:03

Il sole tramonta alle ore 19:28

Data e Ora Cielo e Fenomeni T °C DP °C Um. % Pres. hPa Vis. km Vento km/h
Oggi h: 12:50 sereno Sereno 16 5 47 1026 10 N/NE 22.2
Oggi h: 12:20 sereno Sereno 15 6 54 1026 10 N/NE 20.3
Oggi h: 11:50 sereno Sereno 15 6 54 1026 10 NE 20.3
Oggi h: 11:20 sereno Sereno 14 5 54 1026 10 N/NE 22.2
Oggi h: 10:50 sereno Sereno 13 5 58 1026 10 N 20.3
Oggi h: 10:20 sereno Sereno 12 5 62 1026 10 N 16.7
Oggi h: 09:50 sereno Sereno 11 4 61 1026 10 N 16.7
Oggi h: 09:20 sereno Sereno 9 4 70 1025 10 N 16.7
Oggi h: 08:50 sereno Sereno 8 4 75 1025 10 N 18.5
Oggi h: 08:20 sereno Sereno 8 3 70 1025 10 N 18.5
Oggi h: 07:50 sereno Sereno 7 3 75 1025 10 N 14.8
Oggi h: 07:20 sereno Sereno 6 3 81 1024 10 N 13
Oggi h: 06:50 sereno Sereno 7 3 75 1024 10 N 13
Oggi h: 05:50 sereno Sereno 7 3 75 1024 10 N 14.8
Oggi h: 05:20 sereno Sereno 7 3 75 1024 10 N/NE 11.1
Oggi h: 04:50 sereno Sereno 7 3 75 1024 10 N/NE 14.8
Oggi h: 04:20 sereno Sereno 8 3 70 1024 10 N 14.8
Oggi h: 03:50 sereno Sereno 8 3 70 1024 10 N 18.5
Oggi h: 03:20 sereno Sereno 8 3 70 1024 10 N 14.8
Oggi h: 02:50 sereno Sereno 8 3 70 1024 10 N 11.1
Oggi h: 02:20 sereno Sereno 8 4 75 1024 10 N/NE 9.3
Oggi h: 01:50 sereno Sereno 9 4 70 1024 10 N 11.1
Oggi h: 01:20 sereno Sereno 9 4 70 1024 10 N 18.5
Oggi h: 00:50 sereno Sereno 10 4 66 1024 10 N 20.3
Oggi h: 00:20 sereno Sereno 10 4 66 1024 10 N 14.8
Ieri h: 23:50 sereno Sereno 10 4 66 1024 10 N 16.7
Ieri h: 23:20 sereno Sereno 10 4 66 1024 10 N 14.8
Ieri h: 22:50 sereno Sereno 11 4 61 1024 10 N 16.7
Ieri h: 22:20 sereno Sereno 11 4 61 1024 10 N/NE 13
Ieri h: 21:50 sereno Sereno 11 5 66 1024 10 N 13
Ieri h: 21:20 sereno Sereno 12 5 62 1023 10 N 13
Ieri h: 20:50 sereno Sereno 13 5 58 1023 10 N 14.8
Ieri h: 20:20 poco_nuvoloso Poco Nuvoloso 13 6 62 1023 10 N 13
Ieri h: 19:50 nuvoloso Nuvoloso 14 6 58 1022 10 N/NE 16.7
Ieri h: 19:20 molto_nuvoloso Molto Nuvoloso 15 6 54 1022 10 N 14.8
Ieri h: 18:50 poco_nuvoloso Poco Nuvoloso 15 6 54 1022 10 N 14.8
Ieri h: 18:20 sereno Sereno 17 7 51 1022 10 N/NE 16.7
Ieri h: 17:50 sereno Sereno 17 7 51 1022 10 N 18.5
Ieri h: 17:20 sereno Sereno 18 7 48 1022 10 N 18.5
Ieri h: 16:50 sereno Sereno 17 7 51 1022 10 N/NE 20.3
Ieri h: 16:20 sereno Sereno 18 8 51 1022 10 N/NE 16.7
Ieri h: 15:50 sereno Sereno 18 8 51 1022 10 N/NE 16.7
Ieri h: 15:20 sereno Sereno 18 8 51 1022 10 N/NE 18.5
Ieri h: 14:50 sereno Sereno 18 9 55 1022 10 N/NE 18.5
Ieri h: 14:20 sereno Sereno 17 8 55 1022 10 N/NE 20.3
Ieri h: 13:50 sereno Sereno 17 8 55 1022 10 N/NE 20.3